Location: Gro�wechsungen
(51.4926°N, 10.6901°E)
Time: 08:10:18
(UTC+00:00)

SPOT 3 Rocket - Pass Details

Date: 28 January 2021
Orbit: 780 x 794 km, 98.7° (Epoch: 24 February)

Event Time Altitude Azimuth Distance (km) Brightness Sun altitude
Exits shadow 19:24:51 20° 354° (N) 1,768 5.5 -31.7°
Drops below altitude 10° 19:26:22 10° 350° (N) 2,351 6.2 -31.9°
Sets 19:28:43 0° 347° (NNW) 3,286 7.1 -32.3°
